Flag for Germany Weather past 2 weeks in Bad Vilbel, Hesse, Germany

Now
43 °F

Drizzle. Low clouds.


Feels Like: 39 °F
Forecast: 47 / 54 °F
Wind: 7 mph from Southwest

Location: Frankfurt / M-Flughafen

Current Time: Dec 17, 2014 at 9:30:39 PM

Latest Report: Dec 17, 2014 at 9:00 PM


Visibility: 8 mi

Pressure: 29.85 "Hg

Humidity: 97%

Dew point: 42 °F

Location of Bad VilbelLocation

Historic Weather in Bad Vilbel — Graph

°F

Bad Vilbel temperature yesterday

Maximum temperature yesterday: 46 °F (at 2:00 PM)
Minimum temperature yesterday: 36 °F (at 11:00 PM)
Average temperature yesterday: 42 °F

Past Weeks' High & Low Weather Summary

 TemperatureHumidityPressure
High51 °F (Dec 12, 9:00 PM)100% (Dec 6, 5:00 AM)30.46 "Hg (Dec 6, 5:00 AM)
Low29 °F (Dec 8, 11:00 PM)67% (Dec 12, 8:00 PM)29.62 "Hg (Dec 12, 6:00 PM)
Average39 °F90%30.05 "Hg
* Reported Dec 2 8:00 PM — Dec 17 8:00 PM, Bad Vilbel, Weather by CustomWeather, © 2014

Note: Actual official high and low records may vary slightly from our data, if they occured in-between our weather recording intervals... More about our weather records

Advertising

Bad Vilbel weather history for previous 24 hours

 ConditionsComfort  
Time TempWeatherWind HumidityBarometerVisibility
8:00 PM
Dec 17
43 °FDrizzle. Low clouds.7 mph97%29.82 "Hg7 mi
7:00 PM42 °FLow clouds.6 mph98%29.80 "Hg9 mi
6:00 PM41 °FDrizzle. Low clouds.5 mph99%29.78 "Hg3 mi
5:00 PM40 °FDrizzle. Low clouds.7 mph98%29.76 "Hg3 mi
4:00 PM40 °FRain. Low clouds.6 mph97%29.76 "Hg5 mi
3:00 PM40 °FLight rain. Low clouds.7 mph96%29.74 "Hg10 mi
2:00 PM40 °FLight rain. Low clouds.8 mph96%29.75 "Hg6 mi
1:00 PM39 °FRain. Low clouds.9 mph98%29.77 "Hg4 mi
12:00 PM39 °FRain. Low clouds.8 mph96%29.80 "Hg2 mi
11:00 AM39 °FLight rain. Overcast.7 mph90%29.83 "Hg11 mi
9:00 AM37 °FOvercast.6 mph93%29.89 "Hg11 mi
8:00 AM36 °FOvercast.6 mph97%29.91 "Hg6 mi
7:00 AM35 °FOvercast.3 mph99%29.94 "Hg6 mi
6:00 AM34 °FOvercast.3 mph98%29.96 "Hg11 mi
5:00 AM33 °FOvercast.3 mph98%29.97 "Hg11 mi
4:00 AM32 °FPassing clouds.3 mph100%29.99 "Hg12 mi
3:00 AM33 °FPassing clouds.1 mph98%30.00 "Hg12 mi
2:00 AM33 °FPassing clouds.1 mph100%30.01 "Hg12 mi
1:00 AM33 °FPassing clouds.2 mph99%30.01 "Hg22 mi
12:00 AM33 °FFog.3 mph100%30.01 "Hg25 mi
11:00 PM
Dec 16
36 °FPassing clouds.5 mph95%30.01 "Hg28 mi
9:00 PM38 °FPassing clouds.3 mph96%29.99 "Hg31 mi
Weather by CustomWeather, © 2014

See weather overviewHow to use our weather pages